Regional Weather Roundup
Issued by NWS Goodland, KS

Home | Current Version | Previous Version | Text Only | Print | Product List | Glossary Off
Versions: 1 2 3 4 5 6 7 8 9 10 11 12 13 14 15 16 17 18 19 20 21 22 23 24 25 26 27 28 29 30 31 32 33 34 35 36 37 38 39 40 41 42 43 44 45 46 47 48 49 50

000
ASUS43 KGLD 261608
RWRGLD

GOODLAND FORECAST AREA HOURLY WEATHER ROUNDUP
NATIONAL WEATHER SERVICE GOODLAND KS
900 AM MST MON JAN 26 2015

...OFFICIAL OBSERVATIONS...

CITY           SKY/WX    TMP DP  RH WIND       PRES   REMARKS
GOODLAND KS    SUNNY     50  31  48 NW15      30.16R
HILL CITY KS   SUNNY     53  32  44 NW17G26   30.08R
IMPERIAL NEB   SUNNY     47  30  51 NW15      30.14R
MCCOOK NEB     SUNNY     50  33  52 NW12      30.10R
AKRON CO       MOSUNNY   44  28  53 W16       30.22R
BURLINGTON CO  SUNNY     48  30  49 W14       30.20R
LIMON CO       SUNNY     47  28  47 NW9       30.27R
$$

...UNOFFICIAL OBSERVATIONS...

CITY           SKY/WX    TMP DP  RH WIND       PRES   REMARKS
COLBY KS       SUNNY     52  36  54 NW15      30.15R
GOVE KS          N/A     56  32  40 MISG        N/A
NORTON KS      SUNNY     54  30  40 W16G24    30.07R
SHARON SPRINGS   N/A     51  35  55 NW12        N/A
KIT CARSON CO    N/A     54  32  43 MISG        N/A
YUMA CO          N/A     46  31  56 W17         N/A
$$


USA.gov is the U.S. government's official web portal to all federal, state and local government web resources and services.